Weather History for Lovelock, NV

Change the Weather History Date:

Tuesday, October 11, 2011

  Actual Average Record
Temperature  
Mean Temperature 60 °F -  
Max Temperature 77 °F 71 °F 88 °F (1952)
Min Temperature 44 °F 36 °F 23 °F (2013)
Degree Days  
Heating Degree Days 6    
Growing Degree Days 10 (Base 50)    
Moisture  
Dew Point 40 °F    
Average Humidity 59    
Maximum Humidity 93    
Minimum Humidity 18    
Precipitation  
Precipitation 0.00 in - - ()
Sea Level Pressure  
Sea Level Pressure 30.01 in    
Wind  
Wind Speed 5 mph (WNW)    
Max Wind Speed 20 mph    
Max Gust Speed 24 mph    
Visibility 9 miles    
Events      
Averages and records for this station are not official NWS values.
T = Trace of Precipitation, MM = Missing Value Source: NWS Daily Summary

Daily Weather History Graph

Daily Weather History Graph

Search for Another Location

Airport:

Trip Planner

Search our weather history database for the weather conditions in past years. The results will help you decide how hot, cold, wet, or windy it might be!

Date:

Astronomy

Oct. 11, 2011 Rise Set
Actual Time 7:00 AM PDT 6:20 PM PDT
Civil Twilight 6:33 AM PDT 6:48 PM PDT
Nautical Twilight 6:01 AM PDT 7:19 PM PDT
Astronomical Twilight 5:30 AM PDT 7:50 PM PDT
Moon 5:55 PM PDT (10/11) 6:43 AM PDT (10/11)
Length of Visible Light 12h 14m
Length of Day
11h 20m
Full, 100% of the Moon is Illuminated
Oct 11
Full
Oct 11
Full
Oct 19
Last Quarter
Oct 26
New
Nov 2
First Quarter

Hourly Weather History & Observations

Time (PDT) Temp. Windchill Dew Point Humidity Pressure Visibility Wind Dir Wind Speed Gust Speed Precip Events Conditions
12:53 AM 52.0 °F - 48.0 °F 86% 29.94 in 10.0 mi Calm Calm - 0.00 in   Scattered Clouds
1:53 AM 52.0 °F - 48.0 °F 86% 29.94 in 10.0 mi NE 3.5 mph - N/A   Partly Cloudy
2:53 AM 52.0 °F - 48.0 °F 86% 29.94 in 10.0 mi Calm Calm - N/A   Overcast
3:53 AM 50.0 °F - 48.0 °F 93% 29.94 in 10.0 mi SSE 4.6 mph - N/A   Overcast
5:53 AM 48.0 °F - 45.0 °F 89% 29.95 in 10.0 mi NW 3.5 mph - N/A   Clear
7:01 AM 44.6 °F 42.2 °F 42.8 °F 93% 30.01 in 0.8 mi SE 4.6 mph - N/A   Mostly Cloudy
7:24 AM 46.4 °F - 44.6 °F 93% 30.02 in 2.5 mi Calm Calm - N/A   Overcast
7:31 AM 46.4 °F - 44.6 °F 93% 30.02 in 7.0 mi Calm Calm - N/A   Overcast
7:53 AM 46.9 °F - 44.1 °F 90% 30.01 in 10.0 mi Calm Calm - N/A   Mostly Cloudy
8:53 AM 54.0 °F - 48.9 °F 83% 30.02 in 10.0 mi WNW 4.6 mph - N/A   Clear
9:53 AM 64.9 °F - 44.1 °F 47% 30.00 in 10.0 mi West 17.3 mph - N/A   Clear
10:53 AM 68.0 °F - 42.1 °F 39% 30.01 in 10.0 mi West 19.6 mph 24.2 mph N/A   Clear
11:53 AM 71.1 °F - 41.0 °F 34% 29.99 in 10.0 mi West 17.3 mph - N/A   Clear
1:53 PM 73.9 °F - 34.0 °F 23% 29.98 in 10.0 mi WNW 10.4 mph 17.3 mph N/A   Clear
2:53 PM 75.9 °F - 32.0 °F 20% 29.98 in 10.0 mi WNW 11.5 mph 18.4 mph N/A   Clear
3:53 PM 75.9 °F - 28.9 °F 18% 29.99 in 10.0 mi NW 9.2 mph - N/A   Clear
4:53 PM 75.0 °F - 30.9 °F 20% 30.00 in 10.0 mi NW 13.8 mph - N/A   Clear
5:53 PM 71.1 °F - 33.1 °F 25% 30.02 in 10.0 mi NW 6.9 mph - N/A   Clear
6:53 PM 66.0 °F - 33.1 °F 29% 30.06 in 10.0 mi SW 4.6 mph - N/A   Clear
7:53 PM 61.0 °F - 35.1 °F 38% 30.08 in 9.0 mi Calm Calm - N/A   Clear
8:53 PM 55.0 °F - 37.0 °F 51% 30.09 in 10.0 mi Calm Calm - N/A   Clear
9:53 PM 52.0 °F - 37.0 °F 57% 30.08 in 10.0 mi North 6.9 mph - N/A   Clear
10:53 PM 51.1 °F - 36.0 °F 56% 30.09 in 10.0 mi Calm Calm - N/A   Clear